This is the latest recevied weather packets stored in our database for station/object SP5FLS-15. If no packets are shown the sender has not sent any weather packets the latest 10 day(s).
| Time | Temp. | Humidity | Pressure | Rain* | Wind** | Luminosity | Snow |
|---|---|---|---|---|---|---|---|
| 1777679102 | 5.56° C | 70% | 1022.1 hPa | - | - | - | - |
| 1777678802 | 5.56° C | 72% | 1021.9 hPa | - | - | - | - |
| 1777678502 | 5.56° C | 71% | 1022.1 hPa | - | - | - | - |
| 1777678202 | 5.56° C | 74% | 1022 hPa | - | - | - | - |
| 1777677902 | 5.56° C | 74% | 1022.1 hPa | - | - | - | - |
| 1777677602 | 5.56° C | 75% | 1022 hPa | - | - | - | - |
| 1777677302 | 5.56° C | 75% | 1022.3 hPa | - | - | - | - |
| 1777677002 | 6.11° C | 80% | 1022.1 hPa | - | - | - | - |
| 1777676702 | 6.11° C | 83% | 1022.4 hPa | - | - | - | - |
| 1777676402 | 6.11° C | 83% | 1022.2 hPa | - | - | - | - |
| 1777676102 | 6.11° C | 84% | 1022.2 hPa | - | - | - | - |
| 1777675802 | 6.11° C | 84% | 1022.2 hPa | - | - | - | - |
| 1777675502 | 6.11° C | 85% | 1022.3 hPa | - | - | - | - |
| 1777675202 | 6.11° C | 85% | 1022.2 hPa | - | - | - | - |
| 1777674902 | 6.67° C | 86% | 1022 hPa | - | - | - | - |
| 1777674602 | 6.67° C | 88% | 1022 hPa | - | - | - | - |
| 1777674303 | 6.67° C | 89% | 1022 hPa | - | - | - | - |
| 1777674003 | 6.67° C | 90% | 1021.9 hPa | - | - | - | - |
| 1777673702 | 6.67° C | 93% | 1022 hPa | - | - | - | - |
| 1777673402 | 6.67° C | 96% | 1022 hPa | - | - | - | - |
| 1777673101 | 6.67° C | 98% | 1022 hPa | - | - | - | - |
| 1777672802 | 6.67° C | 98% | 1022.2 hPa | - | - | - | - |
| 1777672502 | 6.67° C | 10% | - | - | - | - | - |
| 1777672202 | 6.67° C | 10% | - | - | - | - | - |
| 1777671902 | 7.22° C | 10% | - | - | - | - | - |
* Rain since midnight (hover to see other rain measurements)
** Current wind speed in m/s (hover to see current wind gust speed)